Погода в Бресте

Погода в Бресте : погода сейчас, прогноз погоды и архив. Всё, что Вы хотите узнать о погоде в Бресте!

Поиск расширенной информации на нашем сайте:

Полезная информация:

Другие новости

Новости СМИ2

Главная страница сайта

Новости сайта

03.07.2017

Напоминаем, что на нашем специализированном сайте Метеоцентр.Азия вы можете получить высокодетализированные автоматические прогнозы погоды по пунктам России, СНГ и мира в авиационном формате (включающие направление и скорость ветра, видимость, явления погоды, количество и форму облачности, нижнюю и верхнюю границу облачности).

Рекомендуем:

Погода в Бресте - сегодня

Время (UTC), дата Ветер
(°,м/с) 
Видим.   Явления Облачность Т
(°С)
Тd
(°С)
f(%) Тe
(°С)
Pmin
(гПа)
dP
(гПа)
Po
(мм)
O2
(г/м3)
Тmin Tmax R s Состояние
почвы
09 15.09.19 260 (З) 30000 м    8/0 верхняя 
[Cs]
+16.2 +6.3 52 +16  1023.7  -1.9  755  286           
12 15.09.19 240 (ЮЗ) 5-11{12}  30000 м    9/0 верхняя 
[Cs]
+19 +5.1 40 +19  1019.8  -3.6  752  283           
15 15.09.19 230 (ЮЗ) 5-10{12}  30000 м    9/0 верхняя 
[Cs]
+19.3 +5.7 41 +20  1016.6  -3.1  750  281           
18 15.09.19 230 (ЮЗ) 3{10}  30000 м    6/0 верхняя 
[Ci fib]
+16.8 +7.2 53 +17  1014.7  -2.1  748  283    +19.7       
21 15.09.19 250 (З) 30000 м    8/0 верхняя 
[Ci fib]
+16.4 +8.4 59 +17  1013.4  -1.3  747  283           
00 16.09.19 240 (ЮЗ) 30000 м    9/0 средняя 
[Ac trans]
+16.6 +9.8 64 +18  1012.2  -1.1  746  282           
03 16.09.19 250 (З) 30000 м    10/0 средняя 
[As op]
+16.6 +9 61 +17  1011.6  -0.6  746  282           
06 16.09.19 290 (З) 30000 м    4/3 1000 м верхняя 
[Sc|Ci fib]
+16.1 +8.6 61 +16  1012.5  0.8  746  283  +15.9         
09 16.09.19 260 (З) 5-11{14}  30000 м    8/5 1000 м верхняя 
[Cu Sc|Ci fib]
+16.2 +6 51 +16  1013.4  0.9  747  283           
12 16.09.19 290 (З) 5-10{12}  30000 м    8/3 1000 м средняя, верхняя 
[Sc|Ac trans|Cs]
+18.1 +5.7 44 +18  1012.8  -0.4  747  281           
15 16.09.19 300 (СЗ) 5-10{12}  30000 м    6/3 1000 м верхняя 
[Sc|Cs]
+17.3 +4.3 42 +17  1012  -0.9  746  282           
18 16.09.19 260 (З) 2{10}  30000 м    3/0 верхняя 
[Ci fib]
+14.1 +5.2 55 +15  1012.1  -0.1  746  285    +18.3       
21 16.09.19 250 (З) 20000 м    4/0 верхняя 
[Ci fib]
+11.4 +6.1 70 +12  1012  -0.3  746  287           
00 17.09.19 270 (З) 30000 м    ясно 
+9.5 +5.3 75 +10  1011.9  -0.2  746  290           
03 17.09.19 250 (З) 30000 м    3/0 верхняя 
[Cs]
+7.5 +5.1 85 +7  1011.9  -0.1  746  292           
06 17.09.19 270 (З) 30000 м    8/0 верхняя 
[Cs]
+9.2 +6.3 82 +9  1011.8  746  290  +7.1         
09 17.09.19 260 (З) 30000 м    4/1 1000 м верхняя 
[Cu hum|Ci sp]
+14.6 +5.7 55 +14  1010.5  -0.9  745  284           
12 17.09.19 250 (З) 4-13{12}  20000 м    9/8 600 м кучево-дожд., средняя 
[Cb calv|Ac As]
+15.6 +4.3 47 +16  1008.1  -2.3  743  283           
15 17.09.19 250 (З) 5-12{12}  30000 м    8/6 600 м кучево-дожд., верхняя 
[Cb calv|Ci sp]
+15 +4.7 50 +15  1006.1  -2  742  283           
18 17.09.19 280 (З) 5-14{12}  15000 м  слаб. ливневой дождь  10/10 930 м 
[Sc]
+10.7 +7.8 82 +10  1006.2  -0.2  742  286    +16.8  0.0     
21 17.09.19 260 (З) 3{14}  30000 м  {ливн. осадки}  8/4 1260 м средняя 
[Sc|Ac As]
+8.7 +7.3 91 +8  1004.5  -1.8  740  288         
00 18.09.19 270 (З) 4{11}  30000 м  в посл. час ливневой дождь  6/6 750 м 
[Sc]
+7.6 +5.6 87 +6  1004.6  740  289      0.1     
03 18.09.19 270 (З) 4{11}  30000 м  в посл. час ливневой дождь  8/8 600 м кучево-дожд. 
[Cb calv]
+6.6 +5.4 92 +5  1004.9  0.2  740  290         
06 18.09.19 250 (З) 4{11}  30000 м  {ливн. осадки}  10/10 420 м 
[Sc]
+7.1 +5.2 88 +6  1006.1  1.2  741  290  +6.6       
09 18.09.19 300 (СЗ) 5-11{11}  20000 м  слаб. ливневой дождь  9/9 960 м 
[Sc]
+9.8 +7.4 85 +9  1008.5  2.6  743  288         
Время (UTC), дата Ветер
(°,м/с) 
Видим.   Явления Облачность Т
(°С)
Тd
(°С)
f(%) Тe
(°С)
Pmin
(гПа)
dP
(гПа)
Po
(мм)
O2
(г/м3)
Тmin Tmax R s Состояние
почвы

Для получения пояснительной информации подведите курсор к названию столбца.

ПОГОДА в Бресте - архив

Всё, что Вы хотите узнать о погоде в Бресте - удобно и подробно!

Выберите нужную дату (начиная с 1 января 2018* года) и нажмите кнопку "Найти".
Будут отображены архивные сводки погоды по пункту Брест, начиная с указанной даты.


Отображать данные в формате CSV (для использования в таблицах Excel)


Внимание! Наш архив погоды предназначен исключительно для личного некоммерческого использования в познавательных целях. Если Вам необходимы официальные справки о состоянии погоды (для производственных, юридических, коммерческих и т.п. целей), обращайтесь в органы Росгидромета.

*Примечание: данная дата относится к архиву по метеостанциям СССР (Россия, СНГ, Балтия).
Архив по метеостанциям Зарубежной Европы и Азии (кроме Китая) хранится 10 дней, по другим регионам земного шара (Китай, Африка, Америка, Австралия, Океания) - 1 день.

Брест - район местоположения метеостанции


Название, широта, долгота, высота метеостанции:
Брест 52.1°ш. 23.7°д. 146 м над ур. моря [Беларусь]

Дополнительная информация

В oтличие oт бoльшинства пoгoдных сайтoв мы публикуем пoдрoбную метеoинфoрмацию в детальнoм прoфессиoнальнoм фoрмате.

Характеристики температуры и влажнoсти вoздуха измеряются на высoте 2 м в тени вдали oт зданий и деревьев.
Скoрoсть ветра измеряется на высoте 10 м (на урoвне рoста челoвека скoрoсть ветра ниже в 1.5-2 раза). Если метеoстанция нахoдится в гoрoде или в лесу, тo скoрoсть ветра занижена на 2-4 м/с пo сравнению с oткрытым местoм. Скoрoсть ветра над акватoриями крупных рек и oзёр, а также на вершинах хoлмoв на 2-5 м/с выше, чем в oбычных услoвиях.
Атмoсфернoе давление в разных тoчках местнoсти мoжет значительнo oтличаться oт давления на метеoстанции, в зависимoсти oт услoвий рельефа (при пoдъёме на 10 м давление пoнижается примернo на 1 мм рт.ст.).